Flag for Hong Kong Weather past 2 weeks in Kowloon, Hong Kong

Now
93 °F

Scattered clouds.


Feels Like: 110 °F
Forecast: 87 / 94 °F
Wind: 18 mph from Southwest

Location: National Airport

Current Time: Jul 2, 2015 at 12:29:03 PM

Latest Report: Jul 2, 2015 at 11:30 AM


Visibility: N/A

Pressure: 29.62 "Hg

Humidity: 63%

Dew point: 79 °F

Location of KowloonLocation

Historic Weather in Kowloon — Graph

°F

Kowloon temperature yesterday

Maximum temperature yesterday: 93 °F (at 11:00 AM)
Minimum temperature yesterday: 86 °F (at 2:00 AM)
Average temperature yesterday: 89 °F

Past Weeks' High & Low Weather Summary

 TemperatureHumidityPressure
High97 °F (Jun 19, 2:30 PM)94% (Jun 22, 3:30 PM)29.83 "Hg (Jun 22, 3:30 PM)
Low77 °F (Jun 23, 9:00 AM)42% (Jun 19, 2:30 PM)29.56 "Hg (Jun 22, 2:30 PM)
Average87 °F73%29.69 "Hg
* Reported Jun 17 11:00 AM — Jul 2 11:00 AM, Kowloon, Weather by CustomWeather, © 2015

Note: Actual official high and low records may vary slightly from our data, if they occured in-between our weather recording intervals... More about our weather records

Advertising

Kowloon weather history for previous 24 hours

 ConditionsComfort  
Time TempWeatherWind HumidityBarometerVisibility
11:00 AM
Thu, Jul 2
93 °FScattered clouds.17 mph63%29.62 "HgN/A
10:30 AM91 °FPassing clouds.18 mph67%29.65 "HgN/A
10:00 AM93 °FPassing clouds.13 mph63%29.62 "HgN/A
9:30 AM91 °FPassing clouds.15 mph67%29.62 "HgN/A
9:00 AM90 °FPassing clouds.10 mph67%29.62 "HgN/A
8:30 AM90 °FPassing clouds.12 mph67%29.62 "HgN/A
8:00 AM90 °FPassing clouds.9 mph71%29.62 "HgN/A
7:30 AM88 °FScattered clouds.10 mph75%29.62 "HgN/A
7:00 AM88 °FScattered clouds.9 mph70%29.62 "HgN/A
6:30 AM86 °FScattered clouds.10 mph79%29.62 "HgN/A
6:00 AM86 °FScattered clouds.9 mph79%29.62 "HgN/A
5:00 AM86 °FPassing clouds.14 mph79%29.62 "HgN/A
4:30 AM86 °FPassing clouds.13 mph79%29.62 "HgN/A
4:00 AM86 °FPassing clouds.13 mph79%29.59 "HgN/A
3:30 AM88 °FPassing clouds.9 mph75%29.62 "HgN/A
3:00 AM86 °FPassing clouds.10 mph79%29.62 "HgN/A
2:30 AM88 °FPassing clouds.9 mph70%29.62 "HgN/A
2:00 AM88 °FPassing clouds.10 mph70%29.62 "HgN/A
1:30 AM88 °FPassing clouds.10 mph70%29.62 "HgN/A
1:00 AM86 °FPassing clouds.12 mph75%29.62 "HgN/A
12:30 AM88 °FPassing clouds.12 mph75%29.65 "HgN/A
12:00 AM88 °FPassing clouds.14 mph75%29.65 "HgN/A
11:30 PM
Wed, Jul 1
88 °FPassing clouds.10 mph75%29.65 "HgN/A
11:00 PM88 °FPassing clouds.9 mph70%29.65 "HgN/A
10:30 PM88 °FPassing clouds.9 mph70%29.65 "HgN/A
10:00 PM88 °FPassing clouds.10 mph75%29.65 "HgN/A
9:30 PM88 °FPassing clouds.7 mph75%29.62 "HgN/A
9:00 PM88 °FPassing clouds.8 mph75%29.62 "HgN/A
8:30 PM88 °FPassing clouds.6 mph70%29.62 "HgN/A
8:00 PM88 °FPassing clouds.6 mph70%29.59 "HgN/A
7:30 PM88 °FPassing clouds.8 mph70%29.59 "HgN/A
7:00 PM88 °FPassing clouds.9 mph70%29.59 "HgN/A
6:30 PM90 °FPassing clouds.9 mph71%29.59 "HgN/A
6:00 PM90 °FPassing clouds.6 mph67%29.56 "HgN/A
5:30 PM91 °FPassing clouds.9 mph63%29.56 "HgN/A
5:00 PM91 °FPassing clouds.13 mph63%29.56 "HgN/A
4:30 PM93 °FPassing clouds.13 mph56%29.56 "HgN/A
4:00 PM91 °FPassing clouds.12 mph59%29.56 "HgN/A
3:30 PM93 °FPassing clouds.12 mph59%29.56 "HgN/A
3:00 PM93 °FPassing clouds.12 mph59%29.59 "HgN/A
2:30 PM93 °FPassing clouds.15 mph59%29.59 "HgN/A
2:00 PM91 °FPassing clouds.17 mph67%29.59 "HgN/A
1:30 PM93 °FPassing clouds.16 mph63%29.62 "HgN/A
1:00 PM91 °FPassing clouds.17 mph67%29.62 "HgN/A
12:30 PM93 °FPassing clouds.18 mph63%29.65 "HgN/A
12:00 PM93 °FPassing clouds.17 mph63%29.65 "HgN/A
Weather by CustomWeather, © 2015

See weather overviewHow to use our weather pages